Flag for Germany Weather past 2 weeks in Schorndorf, Baden-Württemberg, Germany

Now
71 °F

Partly sunny.


Feels Like: 77 °F
Forecast: 54 / 63 °F
Wind: 9 mph from Southwest

Location: Stuttgart-Echterdingen

Current Time: Jul 28, 2015 at 3:31:46 PM

Latest Report: Jul 28, 2015 at 3:00 PM


Visibility: 44 mi

Pressure: 29.79 "Hg

Humidity: 41%

Dew point: 46 °F

Location of SchorndorfLocation

Historic Weather in Schorndorf — Graph

°F

Schorndorf temperature yesterday

Maximum temperature yesterday: 71 °F (at 3:00 PM)
Minimum temperature yesterday: 59 °F (at 4:00 AM)
Average temperature yesterday: 65 °F

Past Weeks' High & Low Weather Summary

 TemperatureHumidityPressure
High94 °F (Jul 22, 3:00 PM)92% (Jul 23, 8:00 AM)30.14 "Hg (Jul 23, 8:00 AM)
Low50 °F (Jul 26, 7:00 AM)26% (Jul 22, 3:00 PM)29.65 "Hg (Jul 24, 8:00 PM)
Average73 °F59%29.93 "Hg
* Reported Jul 13 2:00 PM — Jul 28 2:00 PM, Schorndorf, Weather by CustomWeather, © 2015

Note: Actual official high and low records may vary slightly from our data, if they occured in-between our weather recording intervals... More about our weather records

Advertising

Schorndorf weather history for previous 24 hours

 ConditionsComfort  
Time TempWeatherWind HumidityBarometerVisibility
2:00 PM
Tue, Jul 28
69 °FPartly sunny.8 mph44%29.81 "Hg43 mi
1:00 PM69 °FOvercast.8 mph44%29.81 "Hg43 mi
12:00 PM67 °FOvercast.8 mph48%29.82 "Hg43 mi
10:00 AM66 °FOvercast.7 mph52%29.82 "Hg43 mi
9:00 AM64 °FOvercast.7 mph55%29.82 "Hg43 mi
8:00 AM64 °FOvercast.5 mph56%29.81 "Hg43 mi
7:00 AM63 °FOvercast.3 mph63%29.80 "Hg43 mi
6:00 AM62 °FOvercast.3 mph64%29.79 "Hg37 mi
4:00 AM63 °FOvercast.3 mph59%29.78 "Hg37 mi
3:00 AM64 °FOvercast.3 mph57%29.78 "Hg37 mi
2:00 AM63 °FPassing clouds.3 mph59%29.79 "Hg37 mi
1:00 AM63 °FPassing clouds.3 mph58%29.80 "Hg37 mi
10:00 PM
Mon, Jul 27
66 °FPassing clouds.1 mph48%29.80 "Hg37 mi
9:00 PM68 °FScattered clouds.3 mph42%29.78 "Hg43 mi
8:00 PM69 °FScattered clouds.7 mph42%29.76 "Hg37 mi
7:00 PM69 °FPartly sunny.10 mph41%29.76 "Hg37 mi
6:00 PM70 °FScattered clouds.10 mph42%29.76 "Hg37 mi
5:00 PM69 °FPartly sunny.9 mph46%29.76 "Hg37 mi
4:00 PM69 °FPartly sunny.9 mph52%29.75 "Hg37 mi
3:00 PM71 °FScattered clouds.10 mph52%29.72 "Hg37 mi
Weather by CustomWeather, © 2015

See weather overviewHow to use our weather pages